This demonstration page uses our WeatherBlox Daily Observations layout. Learn more.

Left ArrowRight Arrow

53.62937, 11.41316

Hourly Observations for November 18, 2022

Temp ( °F °C ) Dew Point ( °F °C ) Humidity (%) Winds ( mph kmh ) Pressure ( in mb ) Visibility ( mi km ) Precip ( " mm )
12:20 am 00:20 Cloudy 36 2 32 0 87 87 E 13 20 29.62 1003 6 10 0.00 0.00
12:50 am 00:50 Cloudy 36 2 32 0 87 87 E 12 19 29.62 1003 6 10 0.00 0.00
1:20 am 01:20 Cloudy 36 2 32 0 87 87 ESE 10 17 29.62 1003 6 10 0.00 0.00
1:50 am 01:50 Cloudy 36 2 30 -1 80 80 E 10 17 29.62 1003 6 10 0.00 0.00
2:20 am 02:20 Cloudy 36 2 30 -1 80 80 E 12 19 29.65 1004 6 10 0.00 0.00
2:50 am 02:50 Cloudy 36 2 30 -1 80 80 E 13 20 29.65 1004 6 10 0.00 0.00
3:20 am 03:20 Cloudy 36 2 30 -1 80 80 E 12 19 29.65 1004 6 10 0.00 0.00
3:50 am 03:50 Cloudy 34 1 30 -1 86 86 E 14 22 29.65 1004 6 10 0.00 0.00
4:20 am 04:20 Cloudy 34 1 28 -2 80 80 E 12 19 29.65 1004 6 10 0.00 0.00
4:50 am 04:50 Cloudy 34 1 28 -2 80 80 E 12 19 29.65 1004 6 10 0.00 0.00
5:20 am 05:20 Cloudy 34 1 28 -2 80 80 E 12 19 29.68 1005 6 10 0.00 0.00
5:50 am 05:50 Cloudy 34 1 28 -2 80 80 E 10 17 29.68 1005 6 10 0.00 0.00
6:20 am 06:20 Mostly Cloudy 32 0 28 -2 86 86 E 10 17 29.68 1005 6 10 0.00 0.00
6:50 am 06:50 Cloudy 32 0 27 -3 80 80 E 9 15 29.71 1006 6 10 0.00 0.00
7:20 am 07:20 Cloudy 32 0 27 -3 80 80 E 12 19 29.71 1006 6 10 0.00 0.00
7:50 am 07:50 Mostly Cloudy 32 0 27 -3 80 80 E 13 20 29.71 1006 6 10 0.00 0.00
8:20 am 08:20 Mostly Sunny 32 0 27 -3 80 80 E 13 20 29.74 1007 6 10 0.00 0.00
8:50 am 08:50 Mostly Sunny 34 1 27 -3 75 75 ESE 13 20 29.74 1007 6 10 0.00 0.00
9:20 am 09:20 Mostly Sunny 34 1 27 -3 75 75 E 10 17 29.74 1007 6 10 0.00 0.00
9:50 am 09:50 Mostly Sunny 32 0 25 -4 74 74 E 12 19 29.77 1008 6 10 0.00 0.00
10:20 am 10:20 Mostly Sunny 34 1 27 -3 75 75 E 12 19 29.77 1008 6 10 0.00 0.00
10:50 am 10:50 Mostly Sunny 36 2 25 -4 64 64 E 13 20 29.77 1008 6 10 0.00 0.00
11:20 am 11:20 Mostly Sunny 36 2 25 -4 64 64 E 14 22 29.80 1009 6 10 0.00 0.00
11:50 am 11:50 Mostly Sunny 37 3 25 -4 60 60 ESE 13 20 29.80 1009 6 10 0.00 0.00
12:20 pm 12:20 Mostly Sunny 39 4 25 -4 56 56 ESE 13 20 29.80 1009 6 10 0.00 0.00
12:50 pm 12:50 Mostly Sunny 39 4 23 -5 52 52 ESE 13 20 29.80 1009 6 10 0.00 0.00
1:20 pm 13:20 Mostly Sunny 39 4 25 -4 56 56 ESE 8 13 29.80 1009 6 10 0.00 0.00
1:50 pm 13:50 Mostly Sunny 39 4 25 -4 56 56 ESE 8 13 29.80 1009 6 10 0.00 0.00
2:20 pm 14:20 Mostly Sunny 39 4 23 -5 52 52 ESE 9 15 29.83 1010 6 10 0.00 0.00
2:50 pm 14:50 Mostly Sunny 39 4 23 -5 52 52 E 14 22 29.83 1010 6 10 0.00 0.00
3:20 pm 15:20 Mostly Sunny 37 3 23 -5 56 56 E 10 17 29.83 1010 6 10 0.00 0.00
3:50 pm 15:50 Mostly Sunny 37 3 25 -4 60 60 E 8 13 29.85 1011 6 10 0.00 0.00
4:20 pm 16:20 Mostly Clear 36 2 23 -5 60 60 E 7 11 29.86 1011 6 10 0.00 0.00
4:50 pm 16:50 Mostly Cloudy 36 2 23 -5 60 60 SE 3 6 29.86 1011 6 10 0.00 0.00
5:20 pm 17:20 Mostly Clear 30 -1 23 -5 74 74 ENE 6 9 29.89 1012 6 10 0.00 0.00
5:50 pm 17:50 Mostly Clear 32 0 23 -5 69 69 E 3 6 29.89 1012 6 10 0.00 0.00
6:20 pm 18:20 Mostly Clear 30 -1 23 -5 74 74 E 2 4 29.89 1012 6 10 0.00 0.00
6:50 pm 18:50 Mostly Clear 30 -1 23 -5 74 74 E 3 6 29.89 1012 6 10 0.00 0.00
7:20 pm 19:20 Mostly Clear 30 -1 23 -5 74 74 SE 3 6 29.89 1012 6 10 0.00 0.00
7:50 pm 19:50 Mostly Clear 32 0 23 -5 69 69 SE 3 6 29.91 1013 6 10 0.00 0.00
8:20 pm 20:20 Mostly Clear 30 -1 23 -5 74 74 VRB 2 4 29.91 1013 6 10 0.00 0.00
8:50 pm 20:50 Mostly Clear 25 -4 21 -6 86 86 NNE 3 6 29.92 1013 6 10 0.00 0.00
9:20 pm 21:20 Clear 27 -3 23 -5 86 86 ENE 3 6 29.92 1013 6 10 0.00 0.00
9:50 pm 21:50 Clear 27 -3 23 -5 86 86 ENE 2 4 29.94 1014 6 10 0.00 0.00
10:20 pm 22:20 Clear 25 -4 21 -6 86 86 E 2 4 29.95 1014 6 10 0.00 0.00
10:50 pm 22:50 Clear 27 -3 21 -6 80 80 E 3 6 29.94 1014 6 10 0.00 0.00
11:20 pm 23:20 Clear 23 -5 19 -7 86 86 E 3 6 29.95 1014 6 10 0.00 0.00
11:50 pm 23:50 Clear 23 -5 19 -7 86 86 Calm 29.95 1014 6 10 0.00 0.00

Powered by AerisWeather